Weather in Playa Paraíso

Spain     37°37′45″N   0°43′38″E
temp.,
°C
wind,
m/s
gust,
m/s
humid.,
%
clouds,
%
prec.,
mm/h
press.,
hPa
HPBL,
m
28 january, thu
thu2801:00+17wnw577357 0.0 102479
04:00+16w457464 0.0 102337
07:00+16w337632 0.0 102323
10:00+17w337157 0.0 102441
13:00+19sw346478 0.0 1024146
16:00+20sw566054 0.0 1021157
19:00+17sw567271 0.0 102245
22:00+17sw4575100 0.0 102135
29 january, fri
fri2901:00+16sw4476100 0.0 102129
04:00+16wsw347395 0.0 102025
07:00+16wsw237394 0.0 101923
10:00+17wnw1268100 0.0 102124
13:00+19wsw125950 0.0 1021127
16:00+20ssw44610 0.0 1019203
19:00+18ssw56620 0.0 101933
22:00+17sw44630 0.0 101924
30 january, sat
sat3001:00+17sw34670 0.0 101823
04:00+16w34690 0.0 101623
07:00+16wsw346717 0.0 101424
10:00+17wnw346368 0.0 101557
13:00+19w465877 0.0 1014410
16:00+19wsw6851100 0.0 1012281
19:00+17w6952100 0.0 1013148
22:00+15nw61054100 0.0 1015223
31 january, sun
sun3101:00+14nnw81357100 0.0 1016402
04:00+13nw465899 0.0 1016248
07:00+13wnw235656 0.0 1016104
10:00+13wsw3459100 0.0 1018180
13:00+16wsw5657100 0.0 1018273
16:00+19w5756100 0.0 1016376
19:00+16wnw4664100 0.0 101784
22:00+16wsw3367100 0.0 101824
1 february, mon
mon101:00+15w6767100 0.0 1018103
04:00+15nw566994 0.0 101785
07:00+15wnw586997 0.0 1018142
10:00+15wnw686752 0.0 1020173
13:00+18nw565742 0.0 1020239
16:00+18sw346243 0.0 1019290
19:00+16sw567422 0.0 102072
22:00+16w346734 0.0 102128